• Join FlightAware (Why Join?)
  • Login
  • US Flag 
08:11AM EST


 

Airport Tracker/Info


-or-


 

Live Flight TrackerFlight Track Log ✈ OPT448 ✈ 01-Jul-2013 ✈ KART - KCGF

Flight Track Log - Related Links

Times and Time Zones

All times are in EDT time to prevent confusion due to time zone crossing. See the OPT448 flight status page for this flight to view local times or setup timezone preferences in your user account.

Time Position Orientation Groundspeed Altitude Reporting Facility
EDT Latitude Longitude Course Direction KTS MPH feet Rate Location/Type
03:59PM 44.0597 -76.0836 314° West 275 316 6,000  Level Boston Center
04:00PM 44.1000 -76.1958 297° West 275 316 9,700 2,851 Climbing Boston Center
04:02PM 44.1325 -76.4092 282° West 281 323 14,600 2,298 Climbing Boston Center
04:03PM 44.0833 -76.5500 244° Southwest 320 368 16,900 2,156 Climbing Montreal Center
04:04PM 44.0500 -76.6500 245° Southwest 320 368 19,200 2,300 Climbing Montreal Center
04:05PM 44.0167 -76.7667 248° West 290 334 21,500 2,146 Climbing Montreal Center
04:06PM 43.9833 -76.8333 235° Southwest 290 334 23,600 1,951 Climbing Toronto Center
04:07PM 43.9500 -76.9500 248° West 290 334 25,500 1,200 Climbing Toronto Center
04:08PM 43.9167 -77.0333 241° Southwest 290 334 26,000 250 Climbing Toronto Center
04:09PM 43.8833 -77.1500 248° West 330 380 26,000  Level Toronto Center
04:10PM 43.8333 -77.3000 245° Southwest 360 414 26,000 100 Level Toronto Center
04:11PM 43.8167 -77.4333 260° West 380 437 26,200 950 Climbing Toronto Center
04:12PM 43.7667 -77.5500 239° Southwest 370 426 27,900 900 Climbing Toronto Center
04:13PM 43.7333 -77.7000 253° West 370 426 28,000 50 Climbing Toronto Center
04:14PM 43.6500 -77.8167 225° Southwest 380 437 28,000  Level Toronto Center
04:15PM 43.6000 -77.9000 230° Southwest 370 426 28,000 -5,113 Level Toronto Center
04:17PM 43.0000 -84.1667 265° West 380 437 15,900  Descending Toronto Center
04:18PM 43.4383 -78.2103 82° East 358 412 28,000 5,542 Climbing Cleveland Center
04:19PM 43.3758 -78.3128 230° Southwest 364 419 28,000  Level Cleveland Center
04:20PM 43.3111 -78.4178 230° Southwest 364 419 28,000  Level Cleveland Center
04:21PM 43.2442 -78.5197 228° Southwest 364 419 28,000  Level Cleveland Center
04:22PM 43.1814 -78.6244 231° Southwest 364 419 28,000  Level Cleveland Center
04:23PM 43.1144 -78.7319 230° Southwest 364 419 28,000  Level Cleveland Center
04:24PM 43.0453 -78.8389 229° Southwest 370 426 28,000  Level Cleveland Center
04:25PM 42.9800 -78.9458 230° Southwest 370 426 28,000  Level Cleveland Center
04:26PM 42.9106 -79.0497 228° Southwest 370 426 28,000  Level Cleveland Center
04:27PM 42.8433 -79.1561 229° Southwest 370 426 28,000  Level Cleveland Center
04:28PM 42.7736 -79.2681 230° Southwest 375 432 28,000  Level Cleveland Center
04:29PM 42.7061 -79.3739 229° Southwest 375 432 28,000  Level Cleveland Center
04:30PM 42.6364 -79.4825 229° Southwest 375 432 28,000  Level Cleveland Center
04:31PM 42.5686 -79.5881 229° Southwest 380 437 28,000  Level Cleveland Center
04:32PM 42.4964 -79.6933 227° Southwest 380 437 28,000  Level Cleveland Center
04:33PM 42.4283 -79.7983 229° Southwest 380 437 28,000  Level Cleveland Center
04:34PM 42.3561 -79.9089 229° Southwest 386 444 28,000 -50 Level Cleveland Center
04:35PM 42.2858 -80.0164 229° Southwest 386 444 27,900 -1,050 Descending Cleveland Center
04:36PM 42.2156 -80.1206 228° Southwest 380 437 25,900 -1,900 Descending Cleveland Center
04:37PM 42.1492 -80.2247 229° Southwest 374 430 24,100 -1,550 Descending Cleveland Center
04:38PM 42.0869 -80.3144 227° Southwest 374 430 22,800 -1,400 Descending Cleveland Center
04:39PM 42.0183 -80.4156 228° Southwest 364 419 21,300 -1,550 Descending Cleveland Center
04:40PM 41.9494 -80.5217 229° Southwest 369 425 19,700 -1,550 Descending Cleveland Center
04:41PM 41.8786 -80.6278 228° Southwest 377 434 18,200 -1,850 Descending Cleveland Center
04:42PM 41.8078 -80.7281 227° Southwest 377 434 16,000 -2,411 Descending Cleveland Center
04:43PM 41.7450 -80.8253 229° Southwest 373 429 13,900 -2,336 Descending Cleveland Center
04:44PM 41.6800 -80.9222 228° Southwest 309 356 11,600 -1,985 Descending Cleveland Center
04:45PM 41.6153 -81.0164 227° Southwest 322 371 9,500 -1,890 Descending Cleveland Center
04:46PM 41.5606 -81.0992 229° Southwest 314 361 7,600 -1,900 Descending Cleveland Center
04:47PM 41.5164 -81.1878 236° Southwest 297 342 5,700 -1,900 Descending Cleveland Center
04:48PM 41.4806 -81.2789 242° Southwest 286 329 3,800 -1,350 Descending Cleveland Center
04:49PM 41.4486 -81.3697 245° Southwest 280 322 3,000 -400 Descending Cleveland Center
04:50PM 41.4336 -81.4444 255° West 243 280 3,000  Level Cleveland Center
04:51PM 41.4328 -81.5219 269° West 215 247 3,000  Level Cleveland Center
04:52PM 41.4553 -81.5861 295° West 194 223 3,000 -50 Level Cleveland Center
04:53PM 41.4947 -81.5950 350° North 172 198 2,900 -584 Descending Cleveland Center
04:54PM 41.5203 -81.5567 48° Northeast 135 155 1,900 -835 Descending Cleveland Center
04:55PM 41.5411 -81.5264 47° Northeast 104 120 1,300 -590 Descending Cleveland Center
04:57PM 41.5500 -81.4833 37° Northeast  Level FlightAware Approximate
05:04PM 41.5651 -81.4864 37° Northeast  Level Estimated